Year,Month,Day,Hour,Minute,Value (Times are PST for temperature in C)
2011,07,02,00,00,12.40
2011,07,02,00,01,12.40
2011,07,02,00,02,12.40
2011,07,02,00,03,12.40
2011,07,02,00,04,12.30
2011,07,02,00,05,12.30
2011,07,02,00,06,12.30
2011,07,02,00,07,12.30
2011,07,02,00,08,12.30
2011,07,02,00,09,12.30
2011,07,02,00,10,12.30
2011,07,02,00,11,12.30
2011,07,02,00,12,12.30
2011,07,02,00,13,12.30
2011,07,02,00,14,12.30
2011,07,02,00,15,12.20
2011,07,02,00,16,12.20
2011,07,02,00,17,12.20
2011,07,02,00,18,12.20
2011,07,02,00,19,12.20
2011,07,02,00,20,12.20
2011,07,02,00,21,12.20
2011,07,02,00,22,12.20
2011,07,02,00,23,12.20
2011,07,02,00,24,12.20
2011,07,02,00,25,12.20
2011,07,02,00,26,12.10
2011,07,02,00,27,12.10
2011,07,02,00,28,12.10
2011,07,02,00,29,12.10
2011,07,02,00,30,12.10
2011,07,02,00,31,12.10
2011,07,02,00,32,12.10
2011,07,02,00,33,12.10
2011,07,02,00,34,12.10
2011,07,02,00,35,12.10
2011,07,02,00,36,12.10
2011,07,02,00,37,12.10
2011,07,02,00,38,12.10
2011,07,02,00,39,12.10
2011,07,02,00,40,12.10
2011,07,02,00,41,12.00
2011,07,02,00,42,12.00
2011,07,02,00,43,12.00
2011,07,02,00,44,11.90
2011,07,02,00,45,11.90
2011,07,02,00,46,11.90
2011,07,02,00,47,11.90
2011,07,02,00,48,11.90
2011,07,02,00,49,11.80
2011,07,02,00,50,11.80
2011,07,02,00,51,11.80
2011,07,02,00,52,11.80
2011,07,02,00,53,11.80
2011,07,02,00,54,11.70
2011,07,02,00,55,11.70
2011,07,02,00,56,11.70
2011,07,02,00,57,11.70
2011,07,02,00,58,11.70
2011,07,02,00,59,11.60
2011,07,02,01,00,11.60
2011,07,02,01,01,11.60
2011,07,02,01,02,11.60
2011,07,02,01,03,11.60
2011,07,02,01,04,11.60
2011,07,02,01,05,11.50
2011,07,02,01,06,11.50
2011,07,02,01,07,11.50
2011,07,02,01,08,11.50
2011,07,02,01,09,11.50
2011,07,02,01,10,11.40
2011,07,02,01,11,11.40
2011,07,02,01,12,11.40
2011,07,02,01,13,11.40
2011,07,02,01,14,11.40
2011,07,02,01,15,11.40
2011,07,02,01,16,11.40
2011,07,02,01,17,11.30
2011,07,02,01,18,11.30
2011,07,02,01,19,11.30
2011,07,02,01,20,11.30
2011,07,02,01,21,11.30
2011,07,02,01,22,11.30
2011,07,02,01,23,11.30
2011,07,02,01,24,11.30
2011,07,02,01,25,11.20
2011,07,02,01,26,11.20
2011,07,02,01,27,11.20
2011,07,02,01,28,11.20
2011,07,02,01,29,11.20
2011,07,02,01,30,11.20
2011,07,02,01,31,11.20
2011,07,02,01,32,11.10
2011,07,02,01,33,11.10
2011,07,02,01,34,11.10
2011,07,02,01,35,11.10
2011,07,02,01,36,11.10
2011,07,02,01,37,11.10
2011,07,02,01,38,11.00
2011,07,02,01,39,11.00
2011,07,02,01,40,11.00
2011,07,02,01,41,11.00
2011,07,02,01,42,11.00
2011,07,02,01,43,10.90
2011,07,02,01,44,10.90
2011,07,02,01,45,10.90
2011,07,02,01,46,10.90
2011,07,02,01,47,10.90
2011,07,02,01,48,10.80
2011,07,02,01,49,10.80
2011,07,02,01,50,10.80
2011,07,02,01,51,10.80
2011,07,02,01,52,10.70
2011,07,02,01,53,10.70
2011,07,02,01,54,10.70
2011,07,02,01,55,10.70
2011,07,02,01,56,10.60
2011,07,02,01,57,10.60
2011,07,02,01,58,10.60
2011,07,02,01,59,10.60
2011,07,02,02,00,10.60
2011,07,02,02,01,10.60
2011,07,02,02,02,10.50
2011,07,02,02,03,10.50
2011,07,02,02,04,10.50
2011,07,02,02,05,10.50
2011,07,02,02,06,10.50
2011,07,02,02,07,10.50
2011,07,02,02,08,10.50
2011,07,02,02,09,10.50
2011,07,02,02,10,10.50
2011,07,02,02,11,10.50
2011,07,02,02,12,10.50
2011,07,02,02,13,10.50
2011,07,02,02,14,10.50
2011,07,02,02,15,10.40
2011,07,02,02,16,10.40
2011,07,02,02,17,10.40
2011,07,02,02,18,10.40
2011,07,02,02,19,10.40
2011,07,02,02,20,10.40
2011,07,02,02,21,10.40
2011,07,02,02,22,10.40
2011,07,02,02,23,10.30
2011,07,02,02,24,10.30
2011,07,02,02,25,10.30
2011,07,02,02,26,10.30
2011,07,02,02,27,10.30
2011,07,02,02,28,10.30
2011,07,02,02,29,10.30
2011,07,02,02,30,10.30
2011,07,02,02,31,10.30
2011,07,02,02,32,10.30
2011,07,02,02,33,10.30
2011,07,02,02,34,10.30
2011,07,02,02,35,10.30
2011,07,02,02,36,10.30
2011,07,02,02,37,10.30
2011,07,02,02,38,10.30
2011,07,02,02,39,10.30
2011,07,02,02,40,10.30
2011,07,02,02,41,10.20
2011,07,02,02,42,10.20
2011,07,02,02,43,10.20
2011,07,02,02,44,10.20
2011,07,02,02,45,10.20
2011,07,02,02,46,10.20
2011,07,02,02,47,10.20
2011,07,02,02,48,10.10
2011,07,02,02,49,10.10
2011,07,02,02,50,10.10
2011,07,02,02,51,10.10
2011,07,02,02,52,10.10
2011,07,02,02,53,10.10
2011,07,02,02,54,10.10
2011,07,02,02,55,10.10
2011,07,02,02,56,10.10
2011,07,02,02,57,10.10
2011,07,02,02,58,10.00
2011,07,02,02,59,10.00
2011,07,02,03,00,10.00
2011,07,02,03,01,10.00
2011,07,02,03,02,10.00
2011,07,02,03,03,9.90
2011,07,02,03,04,9.90
2011,07,02,03,05,9.90
2011,07,02,03,06,9.90
2011,07,02,03,07,9.90
2011,07,02,03,08,9.90
2011,07,02,03,09,9.90
2011,07,02,03,10,9.90
2011,07,02,03,11,9.90
2011,07,02,03,12,9.90
2011,07,02,03,13,9.90
2011,07,02,03,14,9.90
2011,07,02,03,15,9.80
2011,07,02,03,16,9.80
2011,07,02,03,17,9.80
2011,07,02,03,18,9.80
2011,07,02,03,19,9.80
2011,07,02,03,20,9.80
2011,07,02,03,21,9.80
2011,07,02,03,22,9.80
2011,07,02,03,23,9.80
2011,07,02,03,24,9.80
2011,07,02,03,25,9.80
2011,07,02,03,26,9.80
2011,07,02,03,27,9.80
2011,07,02,03,28,9.80
2011,07,02,03,29,9.80
2011,07,02,03,30,9.80
2011,07,02,03,31,9.80
2011,07,02,03,32,9.80
2011,07,02,03,33,9.80
2011,07,02,03,34,9.80
2011,07,02,03,35,9.80
2011,07,02,03,36,9.80
2011,07,02,03,37,9.80
2011,07,02,03,38,9.80
2011,07,02,03,39,9.80
2011,07,02,03,40,9.80
2011,07,02,03,41,9.80
2011,07,02,03,42,9.80
2011,07,02,03,43,9.80
2011,07,02,03,44,9.80
2011,07,02,03,45,9.70
2011,07,02,03,46,9.70
2011,07,02,03,47,9.70
2011,07,02,03,48,9.70
2011,07,02,03,49,9.70
2011,07,02,03,50,9.70
2011,07,02,03,51,9.60
2011,07,02,03,52,9.60
2011,07,02,03,53,9.60
2011,07,02,03,54,9.60
2011,07,02,03,55,9.60
2011,07,02,03,56,9.60
2011,07,02,03,57,9.60
2011,07,02,03,58,9.50
2011,07,02,03,59,9.50
2011,07,02,04,00,9.50
2011,07,02,04,01,9.50
2011,07,02,04,02,9.50
2011,07,02,04,03,9.50
2011,07,02,04,04,9.50
2011,07,02,04,05,9.50
2011,07,02,04,06,9.50
2011,07,02,04,07,9.50
2011,07,02,04,08,9.50
2011,07,02,04,09,9.50
2011,07,02,04,10,9.50
2011,07,02,04,11,9.50
2011,07,02,04,12,9.40
2011,07,02,04,13,9.40
2011,07,02,04,14,9.40
2011,07,02,04,15,9.40
2011,07,02,04,16,9.40
2011,07,02,04,17,9.40
2011,07,02,04,18,9.40
2011,07,02,04,19,9.40
2011,07,02,04,20,9.40
2011,07,02,04,21,9.40
2011,07,02,04,22,9.40
2011,07,02,04,23,9.40
2011,07,02,04,24,9.40
2011,07,02,04,25,9.40
2011,07,02,04,26,9.40
2011,07,02,04,27,9.40
2011,07,02,04,28,9.40
2011,07,02,04,29,9.40
2011,07,02,04,30,9.40
2011,07,02,04,31,9.40
2011,07,02,04,32,9.40
2011,07,02,04,33,9.40
2011,07,02,04,34,9.40
2011,07,02,04,35,9.40
2011,07,02,04,36,9.40
2011,07,02,04,37,9.40
2011,07,02,04,38,9.40
2011,07,02,04,39,9.40
2011,07,02,04,40,9.40
2011,07,02,04,41,9.40
2011,07,02,04,42,9.40
2011,07,02,04,43,9.40
2011,07,02,04,44,9.50
2011,07,02,04,45,9.50
2011,07,02,04,46,9.50
2011,07,02,04,47,9.50
2011,07,02,04,48,9.40
2011,07,02,04,49,9.40
2011,07,02,04,50,9.40
2011,07,02,04,51,9.40
2011,07,02,04,52,9.40
2011,07,02,04,53,9.40
2011,07,02,04,54,9.40
2011,07,02,04,55,9.40
2011,07,02,04,56,9.40
2011,07,02,04,57,9.40
2011,07,02,04,58,9.40
2011,07,02,04,59,9.40
2011,07,02,05,00,9.40
2011,07,02,05,01,9.40
2011,07,02,05,02,9.30
2011,07,02,05,03,9.30
2011,07,02,05,04,9.30
2011,07,02,05,05,9.30
2011,07,02,05,06,9.30
2011,07,02,05,07,9.30
2011,07,02,05,08,9.30
2011,07,02,05,09,9.20
2011,07,02,05,10,9.20
2011,07,02,05,11,9.20
2011,07,02,05,12,9.20
2011,07,02,05,13,9.20
2011,07,02,05,14,9.20
2011,07,02,05,15,9.20
2011,07,02,05,16,9.20
2011,07,02,05,17,9.10
2011,07,02,05,18,9.10
2011,07,02,05,19,9.10
2011,07,02,05,20,9.10
2011,07,02,05,21,9.10
2011,07,02,05,22,9.10
2011,07,02,05,23,9.10
2011,07,02,05,24,9.10
2011,07,02,05,25,9.10
2011,07,02,05,26,9.10
2011,07,02,05,27,9.10
2011,07,02,05,28,9.10
2011,07,02,05,29,9.10
2011,07,02,05,30,9.10
2011,07,02,05,31,9.10
2011,07,02,05,32,9.10
2011,07,02,05,33,9.10
2011,07,02,05,34,9.00
2011,07,02,05,35,9.00
2011,07,02,05,36,9.00
2011,07,02,05,37,9.00
2011,07,02,05,38,9.00
2011,07,02,05,39,9.00
2011,07,02,05,40,9.00
2011,07,02,05,41,9.00
2011,07,02,05,42,9.10
2011,07,02,05,43,9.00
2011,07,02,05,44,9.00
2011,07,02,05,45,9.00
2011,07,02,05,46,9.00
2011,07,02,05,47,9.00
2011,07,02,05,48,8.90
2011,07,02,05,49,8.90
2011,07,02,05,50,8.90
2011,07,02,05,51,8.90
2011,07,02,05,52,8.90
2011,07,02,05,53,8.90
2011,07,02,05,54,9.00
2011,07,02,05,55,9.00
2011,07,02,05,56,9.10
2011,07,02,05,57,9.10
2011,07,02,05,58,9.10
2011,07,02,05,59,9.20
2011,07,02,06,00,9.20
2011,07,02,06,01,9.20
2011,07,02,06,02,9.30
2011,07,02,06,03,9.30
2011,07,02,06,04,9.40
2011,07,02,06,05,9.40
2011,07,02,06,06,9.40
2011,07,02,06,07,9.50
2011,07,02,06,08,9.50
2011,07,02,06,09,9.60
2011,07,02,06,10,9.60
2011,07,02,06,11,9.70
2011,07,02,06,12,9.80
2011,07,02,06,13,9.80
2011,07,02,06,14,9.90
2011,07,02,06,15,10.00
2011,07,02,06,16,10.10
2011,07,02,06,17,10.10
2011,07,02,06,18,10.20
2011,07,02,06,19,10.20
2011,07,02,06,20,10.30
2011,07,02,06,21,10.40
2011,07,02,06,22,10.50
2011,07,02,06,23,10.60
2011,07,02,06,24,10.70
2011,07,02,06,25,10.80
2011,07,02,06,26,10.90
2011,07,02,06,27,11.00
2011,07,02,06,28,11.10
2011,07,02,06,29,11.20
2011,07,02,06,30,11.30
2011,07,02,06,31,11.30
2011,07,02,06,32,11.40
2011,07,02,06,33,11.40
2011,07,02,06,34,11.50
2011,07,02,06,35,11.60
2011,07,02,06,36,11.70
2011,07,02,06,37,11.80
2011,07,02,06,38,11.90
2011,07,02,06,39,12.00
2011,07,02,06,40,12.10
2011,07,02,06,41,12.20
2011,07,02,06,42,12.30
2011,07,02,06,43,12.40
2011,07,02,06,44,12.40
2011,07,02,06,45,12.50
2011,07,02,06,46,12.50
2011,07,02,06,47,12.60
2011,07,02,06,48,12.60
2011,07,02,06,49,12.70
2011,07,02,06,50,12.70
2011,07,02,06,51,12.70
2011,07,02,06,52,12.70
2011,07,02,06,53,12.70
2011,07,02,06,54,12.80
2011,07,02,06,55,12.80
2011,07,02,06,56,12.80
2011,07,02,06,57,12.90
2011,07,02,06,58,12.90
2011,07,02,06,59,12.90
2011,07,02,07,00,13.00
2011,07,02,07,01,13.00
2011,07,02,07,02,13.10
2011,07,02,07,03,13.10
2011,07,02,07,04,13.20
2011,07,02,07,05,13.20
2011,07,02,07,06,13.30
2011,07,02,07,07,13.30
2011,07,02,07,08,13.40
2011,07,02,07,09,13.40
2011,07,02,07,10,13.50
2011,07,02,07,11,13.50
2011,07,02,07,12,13.60
2011,07,02,07,13,13.60
2011,07,02,07,14,13.70
2011,07,02,07,15,13.70
2011,07,02,07,16,13.80
2011,07,02,07,17,13.90
2011,07,02,07,18,14.00
2011,07,02,07,19,14.00
2011,07,02,07,20,14.10
2011,07,02,07,21,14.10
2011,07,02,07,22,14.10
2011,07,02,07,23,14.10
2011,07,02,07,24,14.10
2011,07,02,07,25,14.10
2011,07,02,07,26,14.10
2011,07,02,07,27,14.10
2011,07,02,07,28,14.10
2011,07,02,07,29,14.20
2011,07,02,07,30,14.20
2011,07,02,07,31,14.30
2011,07,02,07,32,14.30
2011,07,02,07,33,14.40
2011,07,02,07,34,14.40
2011,07,02,07,35,14.50
2011,07,02,07,36,14.60
2011,07,02,07,37,14.60
2011,07,02,07,38,14.80
2011,07,02,07,39,14.90
2011,07,02,07,40,15.00
2011,07,02,07,41,15.10
2011,07,02,07,42,15.20
2011,07,02,07,43,15.30
2011,07,02,07,44,15.30
2011,07,02,07,45,15.40
2011,07,02,07,46,15.40
2011,07,02,07,47,15.40
2011,07,02,07,48,15.50
2011,07,02,07,49,15.60
2011,07,02,07,50,15.60
2011,07,02,07,51,15.70
2011,07,02,07,52,15.70
2011,07,02,07,53,15.70
2011,07,02,07,54,15.70
2011,07,02,07,55,15.80
2011,07,02,07,56,15.90
2011,07,02,07,57,15.90
2011,07,02,07,58,16.00
2011,07,02,07,59,16.00
2011,07,02,08,00,16.00
2011,07,02,08,01,16.10
2011,07,02,08,02,16.10
2011,07,02,08,03,16.00
2011,07,02,08,04,16.00
2011,07,02,08,05,16.00
2011,07,02,08,06,16.00
2011,07,02,08,07,16.00
2011,07,02,08,08,16.00
2011,07,02,08,09,16.00
2011,07,02,08,10,16.00
2011,07,02,08,11,16.00
2011,07,02,08,12,16.00
2011,07,02,08,13,16.10
2011,07,02,08,14,16.10
2011,07,02,08,15,16.10
2011,07,02,08,16,16.10
2011,07,02,08,17,16.20
2011,07,02,08,18,16.20
2011,07,02,08,19,16.20
2011,07,02,08,20,16.20
2011,07,02,08,21,16.30
2011,07,02,08,22,16.40
2011,07,02,08,23,16.40
2011,07,02,08,24,16.50
2011,07,02,08,25,16.60
2011,07,02,08,26,16.60
2011,07,02,08,27,16.70
2011,07,02,08,28,16.80
2011,07,02,08,29,16.90
2011,07,02,08,30,17.00
2011,07,02,08,31,17.10
2011,07,02,08,32,17.20
2011,07,02,08,33,17.30
2011,07,02,08,34,17.30
2011,07,02,08,35,17.30
2011,07,02,08,36,17.30
2011,07,02,08,37,17.20
2011,07,02,08,38,17.20
2011,07,02,08,39,17.10
2011,07,02,08,40,17.10
2011,07,02,08,41,17.00
2011,07,02,08,42,17.00
2011,07,02,08,43,17.00
2011,07,02,08,44,16.90
2011,07,02,08,45,16.90
2011,07,02,08,46,16.90
2011,07,02,08,47,17.00
2011,07,02,08,48,17.00
2011,07,02,08,49,17.10
2011,07,02,08,50,17.10
2011,07,02,08,51,17.10
2011,07,02,08,52,17.20
2011,07,02,08,53,17.20
2011,07,02,08,54,17.30
2011,07,02,08,55,17.30
2011,07,02,08,56,17.40
2011,07,02,08,57,17.50
2011,07,02,08,58,17.50
2011,07,02,08,59,17.60
2011,07,02,09,00,17.70
2011,07,02,09,01,17.70
2011,07,02,09,02,17.80
2011,07,02,09,03,17.80
2011,07,02,09,04,17.70
2011,07,02,09,05,17.70
2011,07,02,09,06,17.60
2011,07,02,09,07,17.60
2011,07,02,09,08,17.60
2011,07,02,09,09,17.70
2011,07,02,09,10,17.80
2011,07,02,09,11,17.90
2011,07,02,09,12,18.00
2011,07,02,09,13,18.10
2011,07,02,09,14,18.20
2011,07,02,09,15,18.30
2011,07,02,09,16,18.40
2011,07,02,09,17,18.40
2011,07,02,09,18,18.40
2011,07,02,09,19,18.30
2011,07,02,09,20,18.30
2011,07,02,09,21,18.40
2011,07,02,09,22,18.40
2011,07,02,09,23,18.30
2011,07,02,09,24,18.30
2011,07,02,09,25,18.20
2011,07,02,09,26,18.20
2011,07,02,09,27,18.20
2011,07,02,09,28,18.20
2011,07,02,09,29,18.30
2011,07,02,09,30,18.30
2011,07,02,09,31,18.30
2011,07,02,09,32,18.30
2011,07,02,09,33,18.40
2011,07,02,09,34,18.40
2011,07,02,09,35,18.50
2011,07,02,09,36,18.50
2011,07,02,09,37,18.60
2011,07,02,09,38,18.60
2011,07,02,09,39,18.60
2011,07,02,09,40,18.50
2011,07,02,09,41,18.40
2011,07,02,09,42,18.30
2011,07,02,09,43,18.20
2011,07,02,09,44,18.20
2011,07,02,09,45,18.10
2011,07,02,09,46,18.10
2011,07,02,09,47,18.20
2011,07,02,09,48,18.20
2011,07,02,09,49,18.30
2011,07,02,09,50,18.30
2011,07,02,09,51,18.30
2011,07,02,09,52,18.40
2011,07,02,09,53,18.40
2011,07,02,09,54,18.40
2011,07,02,09,55,18.40
2011,07,02,09,56,18.40
2011,07,02,09,57,18.40
2011,07,02,09,58,18.40
2011,07,02,09,59,18.50
2011,07,02,10,00,18.60
2011,07,02,10,01,18.70
2011,07,02,10,02,18.80
2011,07,02,10,03,18.90
2011,07,02,10,04,18.90
2011,07,02,10,05,19.10
2011,07,02,10,06,19.10
2011,07,02,10,07,19.00
2011,07,02,10,08,18.90
2011,07,02,10,09,18.80
2011,07,02,10,10,18.80
2011,07,02,10,11,18.70
2011,07,02,10,12,18.80
2011,07,02,10,13,18.80
2011,07,02,10,14,18.70
2011,07,02,10,15,18.80
2011,07,02,10,16,18.90
2011,07,02,10,17,19.00
2011,07,02,10,18,19.20
2011,07,02,10,19,19.30
2011,07,02,10,20,19.30
2011,07,02,10,21,19.40
2011,07,02,10,22,19.40
2011,07,02,10,23,19.40
2011,07,02,10,24,19.40
2011,07,02,10,25,19.40
2011,07,02,10,26,19.40
2011,07,02,10,27,19.40
2011,07,02,10,28,19.40
2011,07,02,10,29,19.30
2011,07,02,10,30,19.30
2011,07,02,10,31,19.30
2011,07,02,10,32,19.30
2011,07,02,10,33,19.30
2011,07,02,10,34,19.30
2011,07,02,10,35,19.30
2011,07,02,10,36,19.30
2011,07,02,10,37,19.30
2011,07,02,10,38,19.30
2011,07,02,10,39,19.30
2011,07,02,10,40,19.40
2011,07,02,10,41,19.50
2011,07,02,10,42,19.60
2011,07,02,10,43,19.60
2011,07,02,10,44,19.60
2011,07,02,10,45,19.60
2011,07,02,10,46,19.70
2011,07,02,10,47,19.70
2011,07,02,10,48,19.60
2011,07,02,10,49,19.60
2011,07,02,10,50,19.50
2011,07,02,10,51,19.50
2011,07,02,10,52,19.50
2011,07,02,10,53,19.50
2011,07,02,10,54,19.40
2011,07,02,10,55,19.30
2011,07,02,10,56,19.30
2011,07,02,10,57,19.30
2011,07,02,10,58,19.40
2011,07,02,10,59,19.40
2011,07,02,11,00,19.40
2011,07,02,11,01,19.30
2011,07,02,11,02,19.30
2011,07,02,11,03,19.20
2011,07,02,11,04,19.20
2011,07,02,11,05,19.20
2011,07,02,11,06,19.20
2011,07,02,11,07,19.20
2011,07,02,11,08,19.20
2011,07,02,11,09,19.30
2011,07,02,11,10,19.30
2011,07,02,11,11,19.20
2011,07,02,11,12,19.20
2011,07,02,11,13,19.20
2011,07,02,11,14,19.20
2011,07,02,11,15,19.30
2011,07,02,11,16,19.40
2011,07,02,11,17,19.50
2011,07,02,11,18,19.60
2011,07,02,11,19,19.60
2011,07,02,11,20,19.50
2011,07,02,11,21,19.30
2011,07,02,11,22,19.20
2011,07,02,11,23,19.00
2011,07,02,11,24,18.90
2011,07,02,11,25,18.80
2011,07,02,11,26,18.90
2011,07,02,11,27,18.90
2011,07,02,11,28,19.00
2011,07,02,11,29,19.10
2011,07,02,11,30,19.20
2011,07,02,11,31,19.30
2011,07,02,11,32,19.20
2011,07,02,11,33,19.20
2011,07,02,11,34,19.10
2011,07,02,11,35,19.10
2011,07,02,11,36,19.00
2011,07,02,11,37,18.90
2011,07,02,11,38,18.90
2011,07,02,11,39,18.90
2011,07,02,11,40,18.90
2011,07,02,11,41,18.80
2011,07,02,11,42,18.80
2011,07,02,11,43,18.80
2011,07,02,11,44,18.80
2011,07,02,11,45,18.80
2011,07,02,11,46,19.00
2011,07,02,11,47,19.10
2011,07,02,11,48,19.10
2011,07,02,11,49,19.10
2011,07,02,11,50,19.10
2011,07,02,11,51,19.20
2011,07,02,11,52,19.30
2011,07,02,11,53,19.40
2011,07,02,11,54,19.50
2011,07,02,11,55,19.60
2011,07,02,11,56,19.60
2011,07,02,11,57,19.60
2011,07,02,11,58,19.50
2011,07,02,11,59,19.50
2011,07,02,12,00,19.50
2011,07,02,12,01,19.50
2011,07,02,12,02,19.50
2011,07,02,12,03,19.50
2011,07,02,12,04,19.40
2011,07,02,12,05,19.50
2011,07,02,12,06,19.50
2011,07,02,12,07,19.50
2011,07,02,12,08,19.40
2011,07,02,12,09,19.40
2011,07,02,12,10,19.30
2011,07,02,12,11,19.20
2011,07,02,12,12,19.10
2011,07,02,12,13,19.00
2011,07,02,12,14,19.00
2011,07,02,12,15,18.90
2011,07,02,12,16,18.80
2011,07,02,12,17,18.80
2011,07,02,12,18,18.70
2011,07,02,12,19,18.60
2011,07,02,12,20,18.50
2011,07,02,12,21,18.50
2011,07,02,12,22,18.40
2011,07,02,12,23,18.40
2011,07,02,12,24,18.40
2011,07,02,12,25,18.40
2011,07,02,12,26,18.40
2011,07,02,12,27,18.40
2011,07,02,12,28,18.50
2011,07,02,12,29,18.60
2011,07,02,12,30,18.70
2011,07,02,12,31,18.70
2011,07,02,12,32,18.70
2011,07,02,12,33,18.70
2011,07,02,12,34,18.70
2011,07,02,12,35,18.80
2011,07,02,12,36,18.90
2011,07,02,12,37,19.10
2011,07,02,12,38,19.20
2011,07,02,12,39,19.20
2011,07,02,12,40,19.30
2011,07,02,12,41,19.40
2011,07,02,12,42,19.50
2011,07,02,12,43,19.50
2011,07,02,12,44,19.50
2011,07,02,12,45,19.40
2011,07,02,12,46,19.30
2011,07,02,12,47,19.30
2011,07,02,12,48,19.20
2011,07,02,12,49,19.20
2011,07,02,12,50,19.30
2011,07,02,12,51,19.10
2011,07,02,12,52,19.00
2011,07,02,12,53,19.00
2011,07,02,12,54,19.00
2011,07,02,12,55,19.00
2011,07,02,12,56,19.10
2011,07,02,12,57,19.10
2011,07,02,12,58,19.20
2011,07,02,12,59,19.20
2011,07,02,13,00,19.20
2011,07,02,13,01,19.20
2011,07,02,13,02,19.10
2011,07,02,13,03,19.00
2011,07,02,13,04,19.00
2011,07,02,13,05,18.90
2011,07,02,13,06,18.80
2011,07,02,13,07,18.80
2011,07,02,13,08,18.70
2011,07,02,13,09,18.70
2011,07,02,13,10,18.80
2011,07,02,13,11,18.90
2011,07,02,13,12,19.00
2011,07,02,13,13,19.00
2011,07,02,13,14,18.90
2011,07,02,13,15,18.80
2011,07,02,13,16,18.80
2011,07,02,13,17,18.80
2011,07,02,13,18,18.70
2011,07,02,13,19,18.80
2011,07,02,13,20,18.90
2011,07,02,13,21,18.90
2011,07,02,13,22,18.90
2011,07,02,13,23,18.90
2011,07,02,13,24,18.90
2011,07,02,13,25,19.00
2011,07,02,13,26,19.10
2011,07,02,13,27,19.30
2011,07,02,13,28,19.40
2011,07,02,13,29,19.50
2011,07,02,13,30,19.60
2011,07,02,13,31,19.70
2011,07,02,13,32,19.70
2011,07,02,13,33,19.70
2011,07,02,13,34,19.70
2011,07,02,13,35,19.70
2011,07,02,13,36,19.70
2011,07,02,13,37,19.90
2011,07,02,13,38,20.00
2011,07,02,13,39,20.20
2011,07,02,13,40,20.30
2011,07,02,13,41,20.40
2011,07,02,13,42,20.40
2011,07,02,13,43,20.30
2011,07,02,13,44,20.20
2011,07,02,13,45,20.10
2011,07,02,13,46,20.10
2011,07,02,13,47,20.10
2011,07,02,13,48,20.00
2011,07,02,13,49,19.90
2011,07,02,13,50,19.80
2011,07,02,13,51,19.80
2011,07,02,13,52,19.80
2011,07,02,13,53,19.90
2011,07,02,13,54,20.00
2011,07,02,13,55,20.10
2011,07,02,13,56,20.20
2011,07,02,13,57,20.20
2011,07,02,13,58,20.30
2011,07,02,13,59,20.40
2011,07,02,14,00,20.50
2011,07,02,14,01,20.60
2011,07,02,14,02,20.70
2011,07,02,14,03,20.80
2011,07,02,14,04,20.80
2011,07,02,14,05,20.80
2011,07,02,14,06,20.90
2011,07,02,14,07,20.90
2011,07,02,14,08,20.90
2011,07,02,14,09,21.00
2011,07,02,14,10,21.00
2011,07,02,14,11,21.00
2011,07,02,14,12,21.10
2011,07,02,14,13,21.10
2011,07,02,14,14,21.20
2011,07,02,14,15,21.30
2011,07,02,14,16,21.40
2011,07,02,14,17,21.60
2011,07,02,14,18,21.70
2011,07,02,14,19,21.90
2011,07,02,14,20,22.00
2011,07,02,14,21,22.20
2011,07,02,14,22,22.30
2011,07,02,14,23,22.40
2011,07,02,14,24,22.50
2011,07,02,14,25,22.60
2011,07,02,14,26,22.60
2011,07,02,14,27,22.50
2011,07,02,14,28,22.40
2011,07,02,14,29,22.40
2011,07,02,14,30,22.60
2011,07,02,14,31,22.70
2011,07,02,14,32,22.90
2011,07,02,14,33,23.10
2011,07,02,14,34,23.20
2011,07,02,14,35,23.40
2011,07,02,14,36,23.50
2011,07,02,14,37,23.60
2011,07,02,14,38,23.70
2011,07,02,14,39,23.80
2011,07,02,14,40,23.90
2011,07,02,14,41,23.90
2011,07,02,14,42,23.90
2011,07,02,14,43,23.90
2011,07,02,14,44,23.90
2011,07,02,14,45,23.80
2011,07,02,14,46,23.80
2011,07,02,14,47,23.80
2011,07,02,14,48,23.80
2011,07,02,14,49,24.00
2011,07,02,14,50,24.10
2011,07,02,14,51,24.20
2011,07,02,14,52,24.30
2011,07,02,14,53,24.30
2011,07,02,14,54,24.20
2011,07,02,14,55,24.10
2011,07,02,14,56,24.00
2011,07,02,14,57,24.00
2011,07,02,14,58,23.90
2011,07,02,14,59,23.90
2011,07,02,15,00,23.80
2011,07,02,15,01,23.80
2011,07,02,15,02,23.70
2011,07,02,15,03,23.70
2011,07,02,15,04,23.70
2011,07,02,15,05,23.60
2011,07,02,15,06,23.60
2011,07,02,15,07,23.60
2011,07,02,15,08,23.60
2011,07,02,15,09,23.50
2011,07,02,15,10,23.50
2011,07,02,15,11,23.40
2011,07,02,15,12,23.40
2011,07,02,15,13,23.50
2011,07,02,15,14,23.60
2011,07,02,15,15,23.70
2011,07,02,15,16,23.70
2011,07,02,15,17,23.70
2011,07,02,15,18,23.80
2011,07,02,15,19,23.80
2011,07,02,15,20,23.90
2011,07,02,15,21,24.00
2011,07,02,15,22,24.00
2011,07,02,15,23,24.00
2011,07,02,15,24,24.00
2011,07,02,15,25,24.10
2011,07,02,15,26,24.10
2011,07,02,15,27,24.10
2011,07,02,15,28,24.10
2011,07,02,15,29,24.10
2011,07,02,15,30,24.10
2011,07,02,15,31,24.10
2011,07,02,15,32,24.00
2011,07,02,15,33,24.00
2011,07,02,15,34,23.90
2011,07,02,15,35,23.90
2011,07,02,15,36,23.80
2011,07,02,15,37,23.70
2011,07,02,15,38,23.70
2011,07,02,15,39,23.70
2011,07,02,15,40,23.80
2011,07,02,15,41,23.80
2011,07,02,15,42,23.80
2011,07,02,15,43,23.70
2011,07,02,15,44,23.70
2011,07,02,15,45,23.70
2011,07,02,15,46,23.70
2011,07,02,15,47,23.70
2011,07,02,15,48,23.60
2011,07,02,15,49,23.60
2011,07,02,15,50,23.50
2011,07,02,15,51,23.60
2011,07,02,15,52,23.60
2011,07,02,15,53,23.60
2011,07,02,15,54,23.60
2011,07,02,15,55,23.70
2011,07,02,15,56,23.80
2011,07,02,15,57,23.90
2011,07,02,15,58,24.00
2011,07,02,15,59,24.20
2011,07,02,16,00,24.30
2011,07,02,16,01,24.40
2011,07,02,16,02,24.60
2011,07,02,16,03,24.70
2011,07,02,16,04,24.90
2011,07,02,16,05,24.80
2011,07,02,16,06,24.80
2011,07,02,16,07,24.80
2011,07,02,16,08,24.70
2011,07,02,16,09,24.70
2011,07,02,16,10,24.60
2011,07,02,16,11,24.50
2011,07,02,16,12,24.50
2011,07,02,16,13,24.50
2011,07,02,16,14,24.50
2011,07,02,16,15,24.40
2011,07,02,16,16,24.40
2011,07,02,16,17,24.30
2011,07,02,16,18,24.20
2011,07,02,16,19,24.20
2011,07,02,16,20,24.20
2011,07,02,16,21,24.20
2011,07,02,16,22,24.20
2011,07,02,16,23,24.20
2011,07,02,16,24,24.20
2011,07,02,16,25,24.20
2011,07,02,16,26,24.20
2011,07,02,16,27,24.20
2011,07,02,16,28,24.30
2011,07,02,16,29,24.30
2011,07,02,16,30,24.20
2011,07,02,16,31,24.00
2011,07,02,16,32,23.90
2011,07,02,16,33,23.80
2011,07,02,16,34,23.80
2011,07,02,16,35,23.80
2011,07,02,16,36,23.80
2011,07,02,16,37,23.80
2011,07,02,16,38,23.80
2011,07,02,16,39,23.80
2011,07,02,16,40,23.90
2011,07,02,16,41,23.90
2011,07,02,16,42,24.00
2011,07,02,16,43,24.10
2011,07,02,16,44,24.10
2011,07,02,16,45,24.10
2011,07,02,16,46,24.10
2011,07,02,16,47,24.10
2011,07,02,16,48,24.10
2011,07,02,16,49,24.10
2011,07,02,16,50,24.10
2011,07,02,16,51,24.00
2011,07,02,16,52,23.90
2011,07,02,16,53,23.80
2011,07,02,16,54,23.70
2011,07,02,16,55,23.60
2011,07,02,16,56,23.40
2011,07,02,16,57,23.30
2011,07,02,16,58,23.30
2011,07,02,16,59,23.30
2011,07,02,17,00,23.20
2011,07,02,17,01,23.10
2011,07,02,17,02,23.10
2011,07,02,17,03,23.10
2011,07,02,17,04,23.20
2011,07,02,17,05,23.20
2011,07,02,17,06,23.30
2011,07,02,17,07,23.30
2011,07,02,17,08,23.30
2011,07,02,17,09,23.30
2011,07,02,17,10,23.30
2011,07,02,17,11,23.30
2011,07,02,17,12,23.30
2011,07,02,17,13,23.30
2011,07,02,17,14,23.40
2011,07,02,17,15,23.30
2011,07,02,17,16,23.30
2011,07,02,17,17,23.20
2011,07,02,17,18,23.20
2011,07,02,17,19,23.30
2011,07,02,17,20,23.30
2011,07,02,17,21,23.40
2011,07,02,17,22,23.30
2011,07,02,17,23,23.20
2011,07,02,17,24,23.10
2011,07,02,17,25,23.00
2011,07,02,17,26,22.80
2011,07,02,17,27,22.80